Time,TemperatureF,DewpointF,PressureIn,WindDirection,WindDirectionDegrees,WindSpeedMPH,WindSpeedGustMPH,Humidity,HourlyPrecipIn,Conditions,Clouds,dailyrainin,SoftwareType,DateUTC
2013-06-15 00:00:00,44.0,24.0,-100.00,North,-999,-999.0,-999.0,45,-99.99,,,0.00,,2013-06-15 06:00:00,
2013-06-15 00:53:00,44.0,24.0,-100.00,North,-999,-999.0,-999.0,45,-99.99,,,0.00,,2013-06-15 06:53:00,
2013-06-15 01:00:00,41.0,21.0,-100.00,North,-999,-999.0,-999.0,45,-99.99,,,0.00,,2013-06-15 07:00:00,
2013-06-15 01:53:00,41.0,21.0,-100.00,North,-999,-999.0,-999.0,45,-99.99,,,0.00,,2013-06-15 07:53:00,
2013-06-15 02:00:00,40.0,20.0,-100.00,North,-999,-999.0,-999.0,45,-99.99,,,-99.99,,2013-06-15 08:00:00,
2013-06-15 02:53:00,40.0,20.0,-100.00,North,-999,-999.0,-999.0,45,-99.99,,,-99.99,,2013-06-15 08:53:00,
2013-06-15 03:00:00,40.0,20.0,-100.00,North,-999,-999.0,-999.0,45,-99.99,,,0.00,,2013-06-15 09:00:00,
2013-06-15 03:52:00,40.0,20.0,-100.00,North,-999,-999.0,-999.0,45,-99.99,,,0.00,,2013-06-15 09:52:00,
2013-06-15 04:00:00,39.0,20.0,-100.00,North,-999,-999.0,-999.0,45,-99.99,,,0.00,,2013-06-15 10:00:00,
2013-06-15 04:53:00,39.0,20.0,-100.00,North,-999,-999.0,-999.0,45,-99.99,,,0.00,,2013-06-15 10:53:00,
2013-06-15 05:00:00,37.0,18.0,-100.00,North,-999,-999.0,-999.0,45,-99.99,,,0.00,,2013-06-15 11:00:00,
2013-06-15 05:53:00,37.0,18.0,-100.00,North,-999,-999.0,-999.0,45,-99.99,,,0.00,,2013-06-15 11:53:00,
2013-06-15 06:00:00,36.0,17.0,-100.00,North,-999,-999.0,-999.0,45,-99.99,,,0.00,,2013-06-15 12:00:00,
2013-06-15 06:52:00,36.0,17.0,-100.00,North,-999,-999.0,-999.0,45,-99.99,,,0.00,,2013-06-15 12:52:00,
2013-06-15 07:00:00,39.0,20.0,-100.00,North,-999,-999.0,-999.0,45,-99.99,,,0.00,,2013-06-15 13:00:00,
2013-06-15 07:53:00,39.0,20.0,-100.00,North,-999,-999.0,-999.0,45,-99.99,,,0.00,,2013-06-15 13:53:00,
2013-06-15 08:00:00,50.0,29.0,-100.00,North,-999,-999.0,-999.0,45,-99.99,,,0.00,,2013-06-15 14:00:00,
2013-06-15 08:54:00,50.0,29.0,-100.00,North,-999,-999.0,-999.0,45,-99.99,,,0.00,,2013-06-15 14:54:00,
2013-06-15 16:53:00,62.0,41.0,-100.00,North,-999,-999.0,-999.0,45,-99.99,,,0.00,,2013-06-15 22:53:00,
2013-06-15 19:00:00,60.0,-99.9,-100.00,North,-999,-999.0,-999.0,-999,-99.99,,,0.00,,2013-06-16 01:00:00,
2013-06-15 19:53:00,60.0,-99.9,-100.00,North,-999,-999.0,-999.0,-999,-99.99,,,0.00,,2013-06-16 01:53:00,
2013-06-15 22:00:00,47.0,27.0,-100.00,North,-999,-999.0,-999.0,45,-99.99,,,0.00,,2013-06-16 04:00:00,
2013-06-15 22:53:00,47.0,27.0,-100.00,North,-999,-999.0,-999.0,45,-99.99,,,0.00,,2013-06-16 04:53:00,
2013-06-15 23:00:00,46.0,26.0,-100.00,North,-999,-999.0,-999.0,45,-99.99,,,-99.99,,2013-06-16 05:00:00,
2013-06-15 23:52:00,46.0,26.0,-100.00,North,-999,-999.0,-999.0,45,-99.99,,,-99.99,,2013-06-16 05:52:00,